• Processing (Info)

  • MPEC 2023-O118 : 2023 OF5

    The following Minor Planet Electronic Circular may be linked-to from your own Web pages, but must not otherwise be redistributed electronically.

    A form allowing access to any MPEC is at the bottom of this page.


    Read MPEC 2023-O117 Read MPEC 2023-O119


    M.P.E.C. 2023-O118                                Issued 2023 July 30, 12:58 UT
    
         The Minor Planet Electronic Circulars contain information on unusual
             minor planets, routine data on comets and natural satellites,
             and occasional editorial announcements.  They are published
        on behalf of Division F of the International Astronomical Union by the
              Minor Planet Center, Smithsonian Astrophysical Observatory,
                              Cambridge, MA 02138, U.S.A.
    			  
                 Prepared using the Tamkin Foundation Computer Network
    
                                  MPC@CFA.HARVARD.EDU
                URL https://www.minorplanetcenter.net/    ISSN 1523-6714
    
                                    2023 OF5                                 
    
    
    Observations:
         K23O05F* C2023 07 27.53949100 20 14.871+15 22 17.69         20.01wXEO118F52
         K23O05F  C2023 07 27.55028200 20 21.439+15 23 14.31         20.22wXEO118F52
         K23O05F  C2023 07 27.56106000 20 28.006+15 24 10.96         20.15wXEO118F52
         K23O05F  C2023 07 27.57193200 20 34.648+15 25 08.19         20.14wXEO118F52
         K23O05F  C2023 07 27.61620800 21 01.735+15 29 01.06         19.84GVEO118F52
         K23O05F  C2023 07 27.61684000 21 02.205+15 29 05.02         19.98GVEO118F52
         K23O05F bC2023 07 27.91881000 24 19.00 +15 55 47.0          20.8 GVEO118L01
         K23O05F bC2023 07 27.92016900 24 19.93 +15 55 54.9          20.5 GVEO118L01
         K23O05F bC2023 07 27.92666100 24 24.16 +15 56 30.7          20.5 GVEO118L01
         K23O05F bC2023 07 27.92740200 24 24.64 +15 56 35.1          20.3 GVEO118L01
         K23O05F 6C2023 07 27.96604900 24 50.598+16 00 10.80         20.3 GVEO118Z84
         K23O05F 6C2023 07 27.97047200 24 53.555+16 00 35.75         20.2 GVEO118Z84
         K23O05F KC2023 07 28.29998000 28 38.56 +16 31 32.4          19.9 VuEO118H21
         K23O05F KC2023 07 28.30191000 28 39.90 +16 31 43.8          19.8 VuEO118H21
         K23O05F KC2023 07 28.30384000 28 41.23 +16 31 54.9          19.9 VuEO118H21
         K23O05F KB2023 07 28.30414 00 28 41.66 +16 31 55.8          19.8 rZEO118H36
         K23O05F KC2023 07 28.30576900 28 42.56 +16 32 05.9          20.4 VuEO118H21
         K23O05F KB2023 07 28.30998 00 28 45.71 +16 32 29.8          19.5 rZEO118H36
         K23O05F KB2023 07 28.31581 00 28 49.87 +16 33 04.6          19.8 rZEO118H36
         K23O05F  C2023 07 28.36383800 29 24.028+16 37 42.45         19.9 GVEO118654
         K23O05F  C2023 07 28.36795800 29 26.927+16 38 06.43         19.9 GVEO118654
         K23O05F  C2023 07 28.38886400 29 41.609+16 40 08.44         20.1 GVEO118654
         K23O05F  C2023 07 28.39287400 29 44.439+16 40 31.94         20.1 GVEO118654
         K23O05F  C2023 07 29.37637500 42 29.722+18 21 42.66         19.9 GVEO118654
         K23O05F  C2023 07 29.38039400 42 33.079+18 22 09.13         19.9 GVEO118654
         K23O05F  C2023 07 29.43509100 43 18.923+18 28 11.04         19.7 GVEO118654
         K23O05F  C2023 07 29.43910000 43 22.297+18 28 37.61         19.7 GVEO118654
         K23O05F  C2023 07 29.49870400 44 14.408+18 35 20.23         19.74iXEO118F52
         K23O05F  C2023 07 29.50638900 44 20.962+18 36 11.65         19.73iXEO118F52
         K23O05F  C2023 07 29.51403500 44 27.506+18 37 03.37         19.77iXEO118F52
         K23O05F  C2023 07 29.52169000 44 33.975+18 37 54.28         20.01iXEO118F52
         K23O05F KC2023 07 30.37942400 57 58.73 +20 17 55.5          19.7 VuEO118H21
         K23O05F KC2023 07 30.38713800 58 06.43 +20 18 52.3          20.0 VuEO118H21
         K23O05F KC2023 07 30.38906800 58 08.34 +20 19 06.3          19.9 VuEO118H21
    
    Observer details:
    654 Table Mountain Observatory, Wrightwood-PHMC.  Observers N. Evans, P. Choi,
        N. Saini, C. Zhai, R. Trahan, M. Shao.  1.0-m Reflector + CCD.
    F52 Pan-STARRS 2, Haleakala.  Observers J. Bulger, T. Lowe, P. Minguez, A.
        Schultz, I. Smith, K. Chambers, T. Dukes.  Measurers K. Chambers, T. de
        Boer, J. Bulger, J. Fairlamb, H. Gao, M. Huber, C.-C. Lin, T. Lowe, E.
        Magnier, P. Minguez, Y. Ramanjooloo, A. Schultz, I. Smith, R. Wainscoat,
        R. Weryk, S. Chastel.  1.8-m Ritchey-Chretien + CCD.
    H21 Astronomical Research Observatory, Westfield.  Observer R. Holmes.
        Measurers T. Linder, R. Holmes, L. Horn.  0.76-m f/3.0 astrograph + CCD.
    H36 Sandlot Observatory, Scranton.  Observer G. Hug.  0.56-m f/4.2 reflector +
        CMO.
    L01 Visnjan Observatory, Tican.  Observers K. Korlevic, L. Pavletic.  Measurer
        K. Korlevic.  1.0-m f/2.9 reflector + CCD.
    Z84 Calar Alto-Schmidt.  Observers M. Micheli, R. Kresken.  Measurers R.
        Kresken, M. Micheli, F. Ocana, L. Conversi.  0.8-m f/3 Schmidt + CCD.
    
    Orbital elements:
    2023 OF5                                            PHA, Earth MOID = 0.0332 AU
    Epoch 2023 Sept. 13.0 TT = JDT 2460200.5                Veres                   
    M   0.85592              (2000.0)            P               Q                  
    n   0.40324547     Peri.  308.23843     -0.10878859     -0.98829676             
    a   1.8144975      Node   147.52041     +0.96289131     -0.13149341             
    e   0.9027335      Incl.   11.48607     +0.24699265     +0.07732398             
    P   2.44           H   21.07          G   0.15           U   9                  
    Residuals in seconds of arc
    230727 F52  0.0   0.1+    230728 H21  0.1-  0.1+    230729 654  0.0   0.1-
    230727 F52  0.0   0.0     230728 H21  0.1-  0.4+    230729 654  0.1-  0.1-
    230727 F52  0.0   0.0     230728 H21  0.3-  0.3+    230729 654  0.0   0.1-
    230727 F52  0.1+  0.1+    230728 H36  0.1-  0.1+    230729 F52  0.0   0.1-
    230727 F52  0.5-  0.2-    230728 H21  0.4-  0.2+    230729 F52  0.1+  0.2-
    230727 F52  0.7+  0.4+    230728 H36  0.3-  0.2+    230729 F52  0.5+  0.3+
    230727 L01  0.3-  0.4-    230728 H36  1.2+  1.3+    230729 F52  0.4-  0.2-
    230727 L01  0.2+  0.0     230728 654  0.1+  0.1-    230730 H21  0.2+  0.3+
    230727 L01  0.4-  0.0     230728 654  0.2+  0.1-    230730 H21  0.0   0.2+
    230727 L01  0.5-  0.3+    230728 654  0.1+  0.2-    230730 H21  0.3-  0.1-
    230727 Z84  0.1-  0.2-    230728 654  0.2+  0.1-
    230727 Z84  0.3+  0.2+    230729 654  0.1+  0.1-
    
    Ephemeris:
    2023 OF5                 a,e,i = 1.81, 0.90, 11                  q = 0.1765
    Date    TT    R. A. (2000) Decl.     Delta      r    Elong.  Phase     V
    2023 06 30    22 45 25.3 +00 48 14   0.8129  1.5410   114.3    37.0    23.1
    ...
    2023 07 15    23 14 33.6 +05 22 48   0.4877  1.3283   119.8    41.6    21.8
    ...
    2023 07 23    23 45 37.9 +10 16 29   0.3243  1.2037   118.2    48.1    20.8
    ...
    2023 07 29    00 37 19.2 +17 41 43   0.2132  1.1042   109.2    60.3    20.1
    2023 07 30    00 51 45.3 +19 32 32   0.1968  1.0870   106.3    63.7    20.0
    2023 07 31    01 09 05.0 +21 36 44   0.1815  1.0697   102.7    67.8    19.9
    ...
    2023 08 06    04 28 32.1 +33 28 30   0.1311  0.9618    62.9   110.1    20.7
    ...
    2023 08 14    08 20 48.0 +21 00 24   0.2211  0.8061    18.1   157.0    27.3
    ...
    2023 08 29    09 44 31.3 +10 08 01   0.5680  0.4640    10.7   156.3    28.0
    
    M. P. C. Staff               (C) Copyright 2023 MPC           M.P.E.C. 2023-O118
    


    Read MPEC 2023-O117 Read MPEC 2023-O119


    MPEC number:

    Enter an MPEC number in one of the following forms:

    • 1997-B01 (the full form)
    • J97B01 (the packed version of the full form)
    • B01 (the abbreviated form)